Meteo Giornale » Osservazioni meteo Stati Uniti (USA) » Los Angeles

ore: 19:53 - Osservazioni Meteo Los Angeles
Lat. 33° 56' N Lon. 118° 23' W Alt. 38 metri s.l.m.

molto_nuvoloso America/Los_Angeles

18 °C

Molto Nuvoloso

Temp. 24 Ore

18 °C

21 °C

Ovest

14.8 Km/h

Dew point 16 °C

Umidità 88 %

Visibilità  10 Km

Il sole sorge alle ore 06:00

Il sole tramonta alle ore 19:59

Data e Ora Cielo e Fenomeni T °C DP °C Um. % Pres. hPa Vis. km Vento km/h
Oggi h: 19:53 molto_nuvoloso Molto Nuvoloso 18 16 88 1015 10 O 14.8
Oggi h: 19:37 nuvoloso Nuvoloso 19 17 88 1014 10 O/SO 16.7
Oggi h: 18:53 nuvoloso Nuvoloso 19 16 82 1014 10 O/SO 20.3
Oggi h: 18:35 nuvoloso Nuvoloso 19 16 82 1014 10 O 20.3
Oggi h: 17:53 nuvoloso Nuvoloso 20 16 77 1014 10 O/SO 25.9
Oggi h: 16:53 nuvoloso Nuvoloso 21 16 73 1014 10 O 27.8
Oggi h: 15:53 nuvoloso Nuvoloso 21 17 77 1015 10 O/SO 29.6
Oggi h: 15:25 nuvoloso Nuvoloso 21 17 77 1015 10 O 25.9
Oggi h: 14:53 coperto Coperto 21 17 77 1015 10 O 25.9
Oggi h: 13:53 molto_nuvoloso Molto Nuvoloso 20 17 82 1016 13 O 24
Oggi h: 12:53 molto_nuvoloso Molto Nuvoloso 20 17 82 1016 13 O 20.3
Oggi h: 12:12 molto_nuvoloso Molto Nuvoloso 20 17 82 1016 13 O/SO 14.8
Oggi h: 11:53 molto_nuvoloso Molto Nuvoloso 20 17 82 1016 13 O 14.8
Oggi h: 11:34 molto_nuvoloso Molto Nuvoloso 19 17 88 1016 11 O 16.7
Oggi h: 10:53 coperto Coperto 19 17 88 1016 11 O/SO 16.7
Oggi h: 09:53 coperto Coperto 19 17 88 1016 11 O 14.8
Oggi h: 08:53 coperto Coperto 19 17 88 1016 11 O 14.8
Oggi h: 07:53 foschia Foschia 18 17 93 1015 10 O 14.8
Oggi h: 06:53 foschia Foschia 18 17 93 1015 10 O 14.8
Oggi h: 05:53 foschia Foschia 18 16 88 1015 10 O/NO 13
Oggi h: 04:53 coperto Coperto 18 17 93 1015 13 O 16.7
Oggi h: 03:53 coperto Coperto 18 17 93 1014 13 O 13
Oggi h: 02:53 coperto Coperto 18 17 93 1014 14 O/NO 13
Oggi h: 01:53 coperto Coperto 18 17 93 1014 14 O/NO 14.8
Oggi h: 00:53 coperto Coperto 18 17 93 1015 10 O/NO 14.8
Oggi h: 00:30 coperto Coperto 18 16 88 1015 10 NO 14.8
Ieri h: 23:53 coperto Coperto 18 16 88 1015 10 O/NO 13
Ieri h: 22:53 molto_nuvoloso Molto Nuvoloso 18 16 88 1015 10 NO 14.8
Ieri h: 20:53 molto_nuvoloso Molto Nuvoloso 18 16 88 1014 10 O 13
Ieri h: 20:36 molto_nuvoloso Molto Nuvoloso 18 16 88 1014 10 O 16.7